Regional Weather Roundup
Issued by NWS Cleveland, OH

Home | Current Version | Previous Version | Graphics & Text | Print | Product List | Glossary On
Versions: 1 2 3 4 5 6 7 8 9 10 11 12 13 14 15 16 17 18 19 20 21 22 23 24 25 26 27 28 29 30 31 32 33 34 35 36 37 38 39 40 41 42 43 44 45 46 47 48 49 50
000
ASUS41 KCLE 181310
RWRCLE
OHIO REGIONAL WEATHER ROUNDUP
NATIONAL WEATHER SERVICE CLEVELAND, OH
800 AM EST THU JAN 18 2018

NOTE: "FAIR" INDICATES FEW OR NO CLOUDS BELOW 12,000 FEET WITH NO
SIGNIFICANT WEATHER AND/OR OBSTRUCTIONS TO VISIBILITY.

OHZ001>008-015>018-024>027-034-035-043-044-181400-
   NORTHWEST OHIO

CITY           SKY/WX    TMP DP  RH WIND       PRES   REMARKS
DEFIANCE       FAIR      14   6  70 SW8       30.17R WCI   3
FINDLAY        FAIR      15   5  64 SW13      30.18R WCI   1
TOLEDO EXPRESS FAIR      14   9  80 SW12      30.15R WCI   0
TOLEDO EXEC    FAIR      15   7  70 SW16      30.17R WCI  -1
LIMA           FAIR      13   6  74 SW17      30.18F WCI  -4
$$

OHZ009>014-019>023-028>033-038-089-181400-
   NORTHEAST OHIO

CITY           SKY/WX    TMP DP  RH WIND       PRES   REMARKS
CLE-HOPKINS    FAIR      16   5  62 SW13      30.20R WCI   2
CLE-LAKEFRONT  FAIR      16   5  62 SW16      30.18R WCI   1
CUY CO. ARPT   CLEAR     16   7  67 SW14G20   30.16R WCI   1
LORAIN-ELYRIA  FAIR      13   2  61 SW15      30.17S WCI  -3
ASHTABULA      FAIR       9   3  77 S9        30.14S WCI  -4
AKRON-CANTON   FAIR       9   3  77 SW10      30.17R WCI  -5
WOOSTER        FAIR       9   4  80 SW8       30.18R WCI  -3
MANSFIELD      FAIR      13   4  67 SW16      30.16R WCI  -3
YOUNGSTOWN     FAIR       8   3  80 S7        30.15S WCI  -3
$$

OHZ042-051>053-060>062-070>072-077>081-181400-
  SOUTHWEST OHIO

CITY           SKY/WX    TMP DP  RH WIND       PRES   REMARKS
CINC-COVINGTON FAIR      10   7  87 SW12      30.34F WCI  -5
CINC-LUNKEN    FAIR      11   6  81 S8        30.41S WCI  -1
HAMILTON       FAIR      13   7  77 SW7       30.37S WCI   3
DAYTON         FAIR       9   6  88 SW15      30.27F WCI  -8
WRIGHT-PAT AFB FAIR      12   4  69 SW15      30.29F WCI  -4
DAYTON GENERAL FAIR      12   6  77 SW10      30.30S WCI  -1
WILMINGTON     FAIR       8   5  87 SW16      30.30S WCI -10
$$

OHZ036-037-039>041-045>050-054>059-063>069-073>076-082>088-181400-
  CENTRAL AND SOUTHEAST OHIO

CITY           SKY/WX    TMP DP  RH WIND       PRES   REMARKS
COLUMBUS       FAIR      10   5  80 S9        30.29F WCI  -3
OSU AIRPORT    FAIR      10   6  84 S9        30.26F WCI  -3
BOLTON FIELD   CLEAR      9   3  78 SW10      30.29S WCI  -6
RICKENBACK AFB FAIR       8   5  84 S13       30.31S WCI  -7
NEWARK         FAIR      11   5  77 SW12      30.27S WCI  -3
MARION         FAIR      11   4  73 SW14      30.21R WCI  -5
LANCASTER      FAIR      11   5  77 SW12      30.30F WCI  -3
ZANESVILLE     FAIR      10   4  76 SW9       30.29S WCI  -3
NEW PHILLY     NOT AVBL
$$



USA.gov is the U.S. government's official web portal to all federal, state and local government web resources and services.